NI4CE-10 Weather Reports


time (UTC)temp
C
wind
direction
speed
KPH
gust
KPH
rain 1hr
cm
rain 24hr
cm
rain mn
cm
humidity
%
barometer
mb
20260503000603 21 210 11.3 14.5 0.03 1.85 1.85 100 1014.4
20260503000103 21 237 9.7 11.3 0.03 1.85 1.85 100 1013.9
20260502235603 20 188 6.4 12.9 0.03 1.85 1.85 100 1012.9
20260502235455 21 182 3.2 6.4 0.03 1.85 1.85 100 1013.4
20260502235103 21 188 3.2 9.7 0.03 1.85 1.85 100 1013.2
20260502234603 21 182 3.2 6.4 0.03 1.85 1.85 100 1013.4
20260502234502 21 165 0.0 0.0 0.05 1.83 1.83 100 1014.3
20260502234103 21 165 0.0 0.0 0.05 1.85 1.85 100 1013.9
20260502233603 21 165 0.0 0.0 0.05 1.85 1.85 100 1014.2
20260502233104 21 165 0.0 0.0 0.05 1.83 1.83 100 1013.8
20260502232604 21 165 0.0 0.0 0.05 1.83 1.83 100 1014.3
20260502232104 21 165 0.0 8.0 0.05 1.83 1.83 100 1014.6
20260502231604 21 154 0.0 0.0 0.08 1.83 1.83 100 1014.5
20260502231457 21 180 1.6 6.4 0.10 1.83 1.83 100 1014.2
20260502231403 21 154 0.0 0.0 0.10 1.83 1.83 100 1014.2
20260502231104 21 154 0.0 0.0 0.10 1.83 1.83 100 1014.2
20260502230604 21 154 0.0 6.4 0.10 1.83 1.83 100 1014.0
20260502230104 21 180 1.6 6.4 0.10 1.83 1.83 100 1014.2
20260502225604 21 187 4.8 6.4 0.13 1.83 1.83 100 1014.3
20260502225104 21 144 1.6 8.0 0.13 1.83 1.83 100 1014.2
20260502224604 21 195 3.2 9.7 0.13 1.83 1.83 100 1014.6
20260502224104 21 232 3.2 3.2 0.10 1.80 1.80 100 1014.1
20260502223627 21 180 0.0 0.0 0.08 1.78 1.78 100 1013.8
20260502223604 21 130 0.0 4.8 0.10 1.80 1.80 100 1014.0
20260502223104 21 180 0.0 0.0 0.08 1.78 1.78 100 1014.1
20260502222604 21 180 0.0 0.0 0.08 1.78 1.78 100 1013.8
20260502222232 21 180 0.0 0.0 0.18 1.78 1.78 100 1014.2
20260502222104 21 180 0.0 0.0 0.18 1.78 1.78 100 1014.2
20260502221604 21 180 0.0 0.0 0.18 1.75 1.75 100 1014.3
20260502221104 21 180 0.0 0.0 0.20 1.73 1.73 100 1013.8
20260502220604 21 180 0.0 0.0 0.23 1.73 1.73 100 1014.0
20260502220104 21 180 0.0 0.0 0.30 1.73 1.73 100 1014.2
20260502215604 21 180 0.0 4.8 0.38 1.70 1.70 100 1014.0
20260502215104 21 175 4.8 8.0 0.91 1.70 1.70 100 1014.2
20260502214715 21 156 3.2 8.0 1.55 1.70 1.70 100 1014.1
20260502214713 21 84 6.4 8.0 1.70 1.70 1.70 100 1013.7
20260502214604 21 156 3.2 8.0 1.55 1.70 1.70 100 1014.1
20260502214501 21 84 6.4 8.0 1.70 1.70 1.70 100 1013.7
20260502214104 21 84 6.4 8.0 1.70 1.70 1.70 100 1013.7
20260502213629 21 172 0.0 0.0 1.70 1.70 1.70 100 1014.3
20260502213604 21 172 0.0 0.0 1.70 1.70 1.70 100 1014.1
20260502213104 21 172 0.0 0.0 1.70 1.70 1.70 100 1014.3
20260502212604 21 172 0.0 0.0 1.70 1.70 1.70 100 1014.4
20260502212104 21 172 0.0 0.0 1.60 1.60 1.60 100 1014.3
20260502211604 21 172 0.0 6.4 1.57 1.57 1.57 100 1014.6
20260502211316 21 229 6.4 6.4 1.52 1.52 1.52 100 1014.7
20260502211104 21 229 6.4 6.4 1.52 1.52 1.52 100 1014.7
20260502210604 21 187 0.0 4.8 1.50 1.50 1.50 100 1014.2
20260502210104 21 206 1.6 3.2 1.42 1.42 1.42 100 1014.0
20260502205604 21 174 0.0 11.3 1.32 1.32 1.32 100 1013.8
20260502205104 22 291 6.4 35.4 0.76 0.76 0.76 100 1014.2
20260502204604 24 264 17.7 32.2 0.15 0.15 0.15 100 1013.9
20260502204104 26 336 16.1 33.8 0.00 0.00 0.00 100 1013.7
20260502203604 27 12 4.8 8.0 0.00 0.00 0.00 100 1013.3
20260502203104 27 251 6.4 9.7 0.00 0.00 0.00 100 1013.2
20260502202604 28 243 3.2 11.3 0.00 0.00 0.00 100 1013.3
20260502202223 28 293 1.6 14.5 0.00 0.00 0.00 100 1013.5
20260502202104 28 282 6.4 16.1 0.00 0.00 0.00 100 1013.5
20260502201604 28 293 1.6 14.5 0.00 0.00 0.00 100 1013.5
20260502201104 28 250 9.7 17.7 0.00 0.00 0.00 100 1013.5
20260502200604 28 277 12.9 16.1 0.00 0.00 0.00 100 1013.3
20260502200104 28 253 14.5 14.5 0.00 0.00 0.00 100 1013.4
20260502195604 28 260 9.7 16.1 0.00 0.00 0.00 100 1013.3
20260502195104 29 248 11.3 17.7 0.00 0.00 0.00 100 1013.4
20260502194604 28 247 8.0 19.3 0.00 0.00 0.00 100 1013.6
20260502194105 28 272 11.3 17.7 0.00 0.00 0.00 100 1013.7
20260502193741 28 253 9.7 16.1 0.00 0.00 0.00 100 1013.8
20260502193605 28 253 9.7 16.1 0.00 0.00 0.00 100 1013.8
20260502193105 28 285 11.3 16.1 0.00 0.00 0.00 100 1013.8
20260502192605 28 312 4.8 19.3 0.00 0.00 0.00 100 1013.8
20260502192105 28 272 12.9 24.1 0.00 0.00 0.00 100 1014.0
20260502191605 28 229 9.7 20.9 0.00 0.00 0.00 100 1013.8
20260502191105 28 267 17.7 24.1 0.00 0.00 0.00 100 1013.8
20260502190605 29 260 16.1 19.3 0.00 0.00 0.00 100 1013.8
20260502190105 29 289 11.3 20.9 0.00 0.00 0.00 100 1013.8
20260502185741 29 338 8.0 17.7 0.00 0.00 0.00 100 1013.8
20260502185605 29 338 8.0 17.7 0.00 0.00 0.00 100 1013.8
20260502185105 29 257 9.7 25.7 0.00 0.00 0.00 100 1013.9
20260502184605 29 262 9.7 20.9 0.00 0.00 0.00 100 1013.9
20260502184105 29 253 9.7 29.0 0.00 0.00 0.00 100 1014.0
20260502183605 30 288 17.7 30.6 0.00 0.00 0.00 100 1014.1
20260502183105 30 275 12.9 24.1 0.00 0.00 0.00 100 1013.9
20260502182605 30 225 20.9 35.4 0.00 0.00 0.00 100 1014.0
20260502182105 30 195 20.9 35.4 0.00 0.00 0.00 100 1014.0
20260502181605 30 239 30.6 35.4 0.00 0.00 0.00 100 1014.0
20260502181537 31 236 19.3 30.6 0.00 0.00 0.00 100 1014.2
20260502181105 31 236 19.3 30.6 0.00 0.00 0.00 100 1014.2
20260502181038 31 240 29.0 33.8 0.00 0.00 0.00 100 1014.3
20260502180605 30 261 12.9 33.8 0.00 0.00 0.00 100 1014.3
20260502180105 31 240 29.0 33.8 0.00 0.00 0.00 100 1014.3
20260502170105 30 251 14.5 40.2 0.00 0.00 0.00 100 1014.5
20260502164105 31 195 19.3 40.2 0.00 0.00 0.00 100 1014.5
20260502163605 32 215 17.7 43.5 0.00 0.00 0.00 100 1014.4
20260502163543 32 240 19.3 37.0 0.00 0.00 0.00 100 1014.4
20260502163105 32 240 19.3 37.0 0.00 0.00 0.00 100 1014.4
20260502162605 32 257 27.4 40.2 0.00 0.00 0.00 100 1014.4
20260502162105 32 212 11.3 38.6 0.00 0.00 0.00 100 1014.4
20260502161605 32 247 19.3 33.8 0.00 0.00 0.00 100 1014.3
20260502161105 32 255 30.6 35.4 0.00 0.00 0.00 100 1014.6
20260502160605 31 279 19.3 38.6 0.00 0.00 0.00 100 1014.6
20260502160147 32 226 17.7 35.4 0.00 0.00 0.00 100 1014.5
20260502160105 31 237 17.7 33.8 0.00 0.00 0.00 100 1014.5
20260502152106 31 271 22.5 33.8 0.00 0.00 0.00 100 1014.2
20260502151606 32 240 24.1 27.4 0.00 0.00 0.00 100 1014.2
20260502151408 30 219 16.1 37.0 0.00 0.00 0.00 100 1014.3
20260502151106 31 213 22.5 29.0 0.00 0.00 0.00 100 1014.2
20260502150606 30 219 16.1 37.0 0.00 0.00 0.00 100 1014.3
20260502150217 30 225 17.7 38.6 0.00 0.00 0.00 100 1013.9
20260502150106 30 187 16.1 33.8 0.00 0.00 0.00 100 1014.1
20260502140106 29 216 12.9 20.9 0.00 0.00 0.00 100 1013.7
20260502130606 25 205 6.4 9.7 0.00 0.00 0.00 100 1013.3
20260502130106 24 184 8.0 11.3 0.00 0.00 0.00 100 1013.3
20260502123606 22 165 4.8 8.0 0.00 0.00 0.00 100 1013.4
20260502123106 22 208 0.0 8.0 0.00 0.00 0.00 100 1013.3
20260502122606 22 164 0.0 0.0 0.00 0.00 0.00 100 1013.3
20260502122106 22 164 0.0 0.0 0.00 0.00 0.00 100 1013.3
20260502121606 22 164 0.0 0.0 0.00 0.00 0.00 100 1013.3
20260502121106 22 164 0.0 0.0 0.00 0.00 0.00 100 1013.3
20260502120606 21 164 0.0 0.0 0.00 0.00 0.00 100 1013.2
20260502120106 21 164 0.0 0.0 0.00 0.00 0.00 100 1013.1
20260502115606 20 164 0.0 0.0 0.00 0.00 0.00 100 1013.1
20260502115106 20 164 0.0 0.0 0.00 0.00 0.00 100 1013.1
20260502114606 20 164 0.0 3.2 0.00 0.00 0.00 100 1013.1
20260502114107 20 136 0.0 0.0 0.00 0.00 0.00 100 1013.2
20260502113607 20 136 0.0 0.0 0.00 0.00 0.00 100 1013.1
20260502113107 20 136 0.0 0.0 0.00 0.00 0.00 100 1013.1
20260502112607 19 136 0.0 0.0 0.00 0.00 0.00 100 1013.0
20260502112107 19 136 0.0 0.0 0.00 0.00 0.00 100 1013.0
20260502111607 18 136 0.0 0.0 0.00 0.00 0.00 100 1013.0
20260502111107 18 136 0.0 0.0 0.00 0.00 0.00 100 1012.9
20260502110607 18 136 0.0 4.8 0.00 0.00 0.00 100 1012.8
20260502110107 18 123 0.0 0.0 0.00 0.00 0.00 100 1012.7
20260502105607 18 123 0.0 0.0 0.00 0.00 0.00 100 1012.7
20260502105107 18 123 0.0 4.8 0.00 0.00 0.00 100 1012.8
20260502104607 18 161 0.0 8.0 0.00 0.00 0.00 100 1012.8
20260502104107 18 95 0.0 3.2 0.00 0.00 0.00 100 1012.8
20260502103607 18 223 0.0 4.8 0.00 0.00 0.00 100 1012.8
20260502103107 18 105 0.0 4.8 0.00 0.00 0.00 100 1012.7
20260502102607 18 153 0.0 11.3 0.00 0.00 0.00 100 1012.8
20260502102107 18 136 0.0 11.3 0.00 0.00 0.00 100 1012.9
20260502101607 18 66 0.0 11.3 0.00 0.00 0.00 100 1013.0
20260502101107 18 172 3.2 9.7 0.00 0.00 0.00 100 1013.0
20260502100607 18 151 0.0 4.8 0.00 0.00 0.00 100 1013.2
20260502100107 17 147 0.0 3.2 0.00 0.00 0.00 100 1013.2
20260502091107 16 232 0.0 0.0 0.00 0.00 0.00 100 1013.2
20260502091102 16 232 0.0 0.0 0.00 0.00 0.00 100 1013.4
20260502090607 16 232 0.0 0.0 0.00 0.00 0.00 100 1013.2
20260502090107 16 232 0.0 0.0 0.00 0.00 0.00 100 1013.4
20260502080107 17 232 0.0 0.0 0.00 0.00 0.00 100 1013.4
20260502071108 17 232 0.0 0.0 0.00 0.00 0.00 100 1013.8
20260502070608 17 232 0.0 0.0 0.00 0.00 0.00 100 1013.8
20260502070108 17 232 0.0 0.0 0.00 0.00 0.00 100 1013.8
20260502065608 17 232 0.0 0.0 0.00 0.00 0.00 100 1013.8
20260502065108 17 232 0.0 0.0 0.00 0.00 0.00 100 1013.7
20260502064608 17 232 0.0 0.0 0.00 0.00 0.00 100 1013.7
20260502064108 17 232 0.0 0.0 0.00 0.00 0.00 100 1013.8
20260502063608 17 232 0.0 0.0 0.00 0.00 0.00 100 1013.9
20260502063108 17 232 0.0 0.0 0.00 0.00 0.00 100 1013.8
20260502062608 17 232 0.0 0.0 0.00 0.00 0.00 100 1013.9
20260502062108 17 232 0.0 0.0 0.00 0.00 0.00 100 1014.1
20260502061608 17 232 0.0 0.0 0.00 0.00 0.00 100 1014.2
20260502061108 17 232 0.0 0.0 0.00 0.00 0.00 100 1014.2
20260502060608 17 232 0.0 0.0 0.00 0.00 0.00 100 1014.1
20260502060108 17 232 0.0 0.0 0.00 0.00 0.00 100 1014.1
20260502055608 17 232 0.0 0.0 0.00 0.00 0.00 100 1014.1
20260502055108 17 232 0.0 0.0 0.00 0.00 0.00 100 1014.1
20260502054608 17 232 0.0 0.0 0.00 0.00 0.00 100 1014.2
20260502054108 17 232 0.0 0.0 0.00 0.00 0.00 100 1014.3
20260502053608 17 232 0.0 0.0 0.00 0.00 0.00 100 1014.3
20260502053412 17 232 0.0 0.0 0.00 0.00 0.00 100 1014.3
20260502053108 17 232 0.0 0.0 0.00 0.00 0.00 100 1014.2
20260502052608 17 232 0.0 0.0 0.00 0.00 0.00 100 1014.3
20260502052108 17 232 0.0 0.0 0.00 0.00 0.00 100 1014.3
20260502051608 17 232 0.0 0.0 0.00 0.00 0.00 100 1014.4
20260502051108 17 232 0.0 0.0 0.00 0.00 0.00 100 1014.4
20260502050608 17 232 0.0 0.0 0.00 0.00 0.00 100 1014.5
20260502050108 17 232 0.0 0.0 0.00 0.00 0.00 100 1014.5
20260502045608 18 232 0.0 0.0 0.00 0.00 0.00 100 1014.6
20260502045108 18 232 0.0 0.0 0.00 0.00 0.00 100 1014.7
20260502044608 17 232 0.0 0.0 0.00 0.00 0.00 100 1014.7
20260502044108 17 232 0.0 0.0 0.00 0.00 0.00 100 1014.6
20260502043608 17 232 0.0 0.0 0.00 0.00 0.00 100 1014.6
20260502043108 18 232 0.0 0.0 0.00 0.00 0.00 100 1014.6
20260502042608 17 232 0.0 0.0 0.00 0.00 0.00 100 1014.6
20260502042108 17 232 0.0 0.0 0.00 0.00 0.00 100 1014.7
20260502041608 17 232 0.0 0.0 0.00 0.00 0.00 100 1014.7
20260502041108 17 232 0.0 0.0 0.00 0.00 0.00 100 1014.7
20260502040608 17 232 0.0 0.0 0.00 0.00 0.00 100 1014.6
20260502040108 17 232 0.0 0.0 0.00 0.00 0.00 100 1014.6
20260502035608 18 232 0.0 0.0 0.00 0.00 0.00 100 1014.6
20260502035109 18 232 0.0 0.0 0.00 0.00 0.00 100 1014.7
20260502034609 18 232 0.0 0.0 0.00 0.00 0.00 100 1014.7
20260502034109 18 232 0.0 0.0 0.00 0.00 0.00 100 1014.8
20260502033609 18 232 0.0 0.0 0.00 0.00 0.00 100 1014.8
20260502033109 18 232 0.0 0.0 0.00 0.00 0.00 100 1014.8
20260502032609 18 232 0.0 0.0 0.00 0.00 0.00 100 1014.7
20260502032109 18 232 0.0 0.0 0.00 0.00 0.00 100 1014.8
20260502031609 18 232 0.0 0.0 0.00 0.00 0.00 100 1014.8
20260502031109 18 232 0.0 0.0 0.00 0.00 0.00 100 1014.9
20260502030609 18 232 0.0 0.0 0.00 0.00 0.00 100 1015.0
20260502030109 18 232 0.0 0.0 0.00 0.00 0.00 100 1014.9
20260502025609 18 232 0.0 0.0 0.00 0.00 0.00 100 1014.9
20260502025109 18 232 0.0 0.0 0.00 0.00 0.00 100 1015.0
20260502024609 18 232 0.0 0.0 0.00 0.00 0.00 100 1015.0
20260502024109 18 232 0.0 0.0 0.00 0.00 0.00 100 1015.0
20260502023609 19 232 0.0 0.0 0.00 0.00 0.00 100 1014.9
20260502023109 18 232 0.0 0.0 0.00 0.00 0.00 100 1014.9
20260502022609 19 232 0.0 0.0 0.00 0.00 0.00 100 1014.9
20260502022109 19 232 0.0 0.0 0.00 0.00 0.00 100 1014.9
20260502021609 19 232 0.0 0.0 0.00 0.00 0.00 100 1015.0
20260502021109 19 232 0.0 0.0 0.00 0.00 0.00 100 1015.1
20260502020609 19 232 0.0 0.0 0.00 0.00 0.00 100 1014.9
20260502020109 20 232 0.0 0.0 0.00 0.00 0.00 100 1015.0
20260502015609 20 232 0.0 0.0 0.00 0.00 0.00 100 1014.9
20260502015109 20 232 0.0 0.0 0.00 0.00 0.00 100 1014.9
20260502014609 20 232 0.0 0.0 0.00 0.00 0.00 100 1014.8
20260502014109 20 232 0.0 0.0 0.00 0.00 0.00 100 1014.8
20260502013609 20 232 0.0 0.0 0.00 0.00 0.00 100 1014.6
20260502013109 20 232 0.0 0.0 0.00 0.00 0.00 100 1014.7
20260502012609 20 232 0.0 0.0 0.00 0.00 0.00 100 1014.6
20260502012109 21 232 0.0 0.0 0.00 0.00 0.00 100 1014.6
20260502011609 21 232 0.0 0.0 0.00 0.00 0.00 100 1014.5
20260502011109 21 232 0.0 0.0 0.00 0.00 0.00 100 1014.4
20260502010609 21 232 0.0 0.0 0.00 0.00 0.00 100 1014.4
20260502010109 22 232 0.0 0.0 0.00 0.00 0.00 100 1014.3
20260502005609 22 232 0.0 0.0 0.00 0.00 0.00 100 1014.2
20260502005110 22 232 0.0 0.0 0.00 0.00 0.00 100 1014.2
20260502004609 22 232 0.0 0.0 0.00 0.00 0.00 100 1014.2
20260502004109 23 232 0.0 3.2 0.00 0.00 0.00 100 1014.1
20260502003609 23 260 0.0 0.0 0.00 0.00 0.00 100 1014.1
20260502003109 23 260 0.0 0.0 0.00 0.00 0.00 100 1013.9
20260502002609 23 260 0.0 4.8 0.00 0.00 0.00 100 1013.9
20260502002109 24 275 0.0 6.4 0.00 0.00 0.00 100 1013.8
20260502001731 25 241 0.0 9.7 0.00 0.00 0.00 100 1013.6
20260502001609 24 244 0.0 6.4 0.00 0.00 0.00 100 1013.8
20260502001109 24 247 4.8 8.0 0.00 0.00 0.00 100 1013.8